Tracking 19827 objects as of 22-Aug-2019
HD Live streaming from Space Station
objects crossing your sky now

COSMOS 400

Track COSMOS 400 now!
10-day predictions
COSMOS 400 is classified as:


NORAD ID: 5050
Int'l Code: 1971-020A
Perigee: 986.9 km
Apogee: 1,011.2 km
Inclination: 65.8 °
Period: 104.9 minutes
Semi major axis: 7370 km
RCS: 1.4626 m2 (large)
Launch date: March 18, 1971
Source: Commonwealth of Independent States (former USSR) (CIS)
Launch site: PLESETSK MISSILE AND SPACE COMPLEX (PKMTR)
aabbcc
Your satellite tracking list
Your tracking list is empty




NASA's NSSDC Master Catalog

Two Line Element Set (TLE):
1  5050U 71020A   19233.93426853 -.00000069 +00000-0 +12293-4 0  9995
2  5050 065.8234 199.5583 0016496 272.6053 157.6195 13.72139820426148
Source of the keplerian elements: AFSPC